FW3304 Weather Reports


Display with metric or nautical units.
time (UTC)temp
F
wind
direction
speed
MPH
gust
MPH
rain 1hr
in
rain 24hr
in
rain mn
in
humidity
%
barometer
mb
20260509173017 73 338 3.0 5.0 0.00 0.00 0.00 66 1010.1
20260509171511 73 330 2.0 6.0 0.00 0.00 0.00 66 1010.1
20260509170016 71 301 2.0 8.0 0.00 0.00 0.00 69 1012.2
20260509170008 71 359 2.0 5.0 0.00 0.00 0.00 69 1010.1
20260509164506 71 258 2.0 6.0 0.00 0.00 0.00 69 1010.2
20260509163016 70 243 2.0 8.0 0.00 0.00 0.00 70 1012.3
20260509163002 70 151 2.0 5.0 0.00 0.00 0.00 70 1010.2
20260509161604 70 253 3.0 7.0 0.00 0.00 0.00 74 1010.2
20260509160057 69 323 1.0 5.0 0.00 0.00 0.00 73 1010.2
20260509160016 69 298 2.0 9.0 0.00 0.00 0.00 74 1012.3
20260509154602 69 294 2.0 5.0 0.00 0.00 0.00 75 1010.2
20260509153106 68 232 2.0 7.0 0.00 0.00 0.00 75 1010.1
20260509153022 68 292 2.0 9.0 0.00 0.00 0.00 75 1012.1
20260509151557 68 295 3.0 8.0 0.00 0.00 0.00 77 1010.1
20260509150043 67 326 2.0 8.0 0.00 0.00 0.00 80 1009.9
20260509150016 67 277 2.0 9.0 0.00 0.00 0.00 80 1011.8
20260509144540 66 266 3.0 8.0 0.00 0.00 0.00 81 1009.8
20260509143041 65 259 3.0 7.0 0.00 0.00 0.00 82 1009.9
20260509143016 65 257 3.0 9.0 0.00 0.00 0.00 82 1011.8
20260509141542 64 296 3.0 7.0 0.00 0.00 0.00 84 1009.7
20260509140030 63 257 4.0 7.0 0.00 0.00 0.00 84 1009.8
20260509140016 63 250 3.0 10.0 0.00 0.00 0.00 84 1011.8
20260509134532 62 252 3.0 8.0 0.00 0.00 0.00 87 1009.5
20260509133024 61 271 3.0 9.0 0.00 0.00 0.00 87 1009.4
20260509133016 61 244 3.0 10.0 0.00 0.00 0.00 87 1011.4
20260509131527 60 244 2.0 6.0 0.00 0.00 0.00 89 1009.4
20260509130023 59 221 2.0 6.0 0.00 0.00 0.00 90 1009.3
20260509130015 59 216 3.0 8.0 0.00 0.00 0.00 90 1011.4
20260509124517 58 224 2.0 7.0 0.00 0.00 0.00 91 1009.3
20260509123016 57 206 3.0 8.0 0.00 0.00 0.00 92 1011.1
20260509121510 56 191 4.0 7.0 0.00 0.00 0.00 92 1009.0
20260509120040 55 219 2.0 6.0 0.00 0.00 0.00 93 1010.7
20260509120017 55 212 3.0 6.0 0.00 0.00 0.00 93 1008.9
20260509114504 54 229 1.0 4.0 0.00 0.00 0.00 94 1008.7
20260509113016 53 237 0.0 3.0 0.00 0.00 0.00 93 1010.1
20260509113002 53 238 1.0 3.0 0.00 0.00 0.00 93 1008.4
20260509111615 52 240 0.0 0.0 0.00 0.00 0.00 92 1008.5
20260509110058 53 197 0.0 0.0 0.00 0.00 0.00 91 1008.3
20260509110015 53 0.0 2.0 0.00 0.00 0.00 91 1010.1
20260509104608 53 197 0.0 0.0 0.00 0.00 0.00 90 1008.2
20260509103106 54 196 0.0 0.0 0.00 0.00 0.00 90 1008.1
20260509103016 54 197 0.0 5.0 0.00 0.00 0.00 90 1009.9
20260509101555 55 198 0.0 2.0 0.00 0.00 0.00 89 1008.1
20260509100051 55 198 0.0 5.0 0.00 0.00 0.00 90 1008.0
20260509100015 55 186 2.0 5.0 0.00 0.00 0.00 90 1009.9
20260509094548 55 186 2.0 4.0 0.00 0.00 0.00 89 1007.9
20260509093047 56 177 1.0 3.0 0.00 0.00 0.00 88 1008.0
20260509093015 56 182 1.0 5.0 0.00 0.00 0.00 89 1009.8
20260509091547 56 176 0.0 4.0 0.00 0.00 0.00 88 1008.1
20260509090052 56 192 1.0 5.0 0.00 0.00 0.00 87 1007.9
20260509090015 56 206 0.0 5.0 0.00 0.00 0.00 87 1009.9
20260509084541 56 209 0.0 2.0 0.00 0.00 0.00 87 1008.2
20260509083039 57 209 0.0 0.0 0.00 0.00 0.00 86 1008.3
20260509083020 57 0.0 4.0 0.00 0.00 0.00 86 1010.1
20260509081549 57 209 0.0 0.0 0.00 0.00 0.00 85 1008.6
20260509080038 58 209 0.0 0.0 0.00 0.00 0.00 84 1008.5
20260509080015 58 209 0.0 5.0 0.00 0.00 0.00 84 1010.4
20260509074533 58 210 0.0 3.0 0.00 0.00 0.00 83 1008.5
20260509073043 59 211 2.0 4.0 0.00 0.00 0.00 82 1008.4
20260509073015 59 192 1.0 7.0 0.00 0.00 0.00 82 1010.4
20260509071539 59 210 2.0 5.0 0.00 0.00 0.00 82 1008.4
20260509070039 59 174 2.0 5.0 0.00 0.00 0.00 81 1008.4
20260509070015 59 188 2.0 8.0 0.00 0.00 0.00 81 1010.3
20260509064531 59 169 2.0 5.0 0.00 0.00 0.00 81 1008.6
20260509063052 59 205 5.0 8.0 0.00 0.00 0.00 81 1008.6
20260509063015 59 182 3.0 8.0 0.00 0.00 0.00 80 1010.5
20260509061540 59 172 2.0 8.0 0.00 0.00 0.00 80 1008.3
20260509060028 59 177 3.0 5.0 0.00 0.00 0.00 79 1008.7
20260509060015 59 190 2.0 9.0 0.00 0.00 0.00 79 1010.6
20260509054519 59 175 2.0 6.0 0.00 0.00 0.00 78 1009.1
20260509053020 59 189 2.0 5.0 0.00 0.00 0.00 78 1009.6
20260509053015 59 201 2.0 9.0 0.00 0.00 0.00 78 1011.4
20260509051514 59 212 4.0 9.0 0.00 0.00 0.00 78 1009.7
20260509050020 59 184 1.0 7.0 0.00 0.00 0.00 77 1011.0
20260509050012 59 200 2.0 6.0 0.00 0.00 0.00 77 1009.1
20260509044513 59 176 1.0 4.0 0.00 0.00 0.00 76 1009.6
20260509043015 59 193 2.0 8.0 0.00 0.00 0.00 74 1011.5
20260509043011 59 193 2.0 4.0 0.00 0.00 0.00 74 1009.7
20260509041511 60 181 3.0 7.0 0.00 0.00 0.00 74 1009.4
20260509040015 60 196 2.0 8.0 0.00 0.00 0.00 73 1011.3
20260509040011 60 193 1.0 4.0 0.00 0.00 0.00 73 1009.3
20260509034511 60 194 2.0 5.0 0.00 0.00 0.00 73 1009.4
20260509033015 60 183 2.0 6.0 0.00 0.00 0.00 74 1011.1
20260509033011 59 168 2.0 5.0 0.00 0.00 0.00 74 1009.3
20260509031509 58 189 2.0 4.0 0.00 0.00 0.00 77 1009.5
20260509030015 57 0.0 0.0 0.00 0.00 0.00 81 1011.6
20260509030008 57 204 0.0 0.0 0.00 0.00 0.00 81 1009.8
20260509024512 58 204 0.0 0.0 0.00 0.00 0.00 80 1009.2
20260509023017 58 0.0 0.0 0.00 0.00 0.00 80 1011.3
20260509023008 58 204 0.0 0.0 0.00 0.00 0.00 80 1009.3
20260509021507 58 204 0.0 0.0 0.00 0.00 0.00 80 1009.1
20260509020037 58 0.0 0.0 0.00 0.00 0.00 79 1011.0
20260509020005 58 204 0.0 0.0 0.00 0.00 0.00 79 1009.2
20260509014512 59 204 0.0 0.0 0.00 0.00 0.00 79 1009.2
20260509013021 60 0.0 0.0 0.00 0.00 0.00 77 1011.0
20260509013004 60 204 0.0 0.0 0.00 0.00 0.00 77 1009.3
20260509011503 62 204 0.0 0.0 0.00 0.00 0.00 75 1009.3
20260509010017 64 0.0 0.0 0.00 0.00 0.00 72 1011.1
20260509010003 64 204 0.0 0.0 0.00 0.00 0.00 72 1009.4
20260509004501 66 204 0.0 0.0 0.00 0.00 0.00 68 1009.3
20260509003100 67 204 0.0 0.0 0.00 0.00 0.00 65 1009.4
20260509003037 68 0.0 3.0 0.00 0.00 0.00 65 1011.2
20260509001559 69 204 0.0 0.0 0.00 0.00 0.00 62 1009.4
20260509000057 71 204 0.0 0.0 0.00 0.00 0.00 58 1009.5
20260509000016 71 203 0.0 6.0 0.00 0.00 0.00 57 1011.1
20260508234557 71 204 1.0 3.0 0.00 0.00 0.00 54 1009.7
20260508233053 71 204 1.0 4.0 0.00 0.00 0.00 54 1010.0
20260508233017 71 207 2.0 9.0 0.00 0.00 0.00 53 1011.6
20260508231552 72 215 2.0 5.0 0.00 0.00 0.00 51 1010.0
20260508230049 72 209 2.0 4.0 0.00 0.00 0.00 51 1010.2
20260508230017 72 194 3.0 9.0 0.00 0.00 0.00 51 1012.0
20260508224549 72 214 4.0 9.0 0.00 0.00 0.00 49 1010.4
20260508223047 72 160 2.0 6.0 0.00 0.00 0.00 51 1010.4
20260508223016 72 179 2.0 8.0 0.00 0.00 0.00 51 1012.2
20260508221544 72 156 2.0 6.0 0.00 0.00 0.00 52 1010.3
20260508220042 72 224 3.0 8.0 0.00 0.00 0.00 50 1010.4
20260508220021 72 189 3.0 11.0 0.00 0.00 0.00 52 1012.2
20260508214541 72 193 3.0 7.0 0.00 0.00 0.00 49 1010.4
20260508213039 72 171 4.0 11.0 0.00 0.00 0.00 49 1010.5
20260508213016 72 188 5.0 11.0 0.00 0.00 0.00 49 1012.2
20260508211538 72 167 5.0 11.0 0.00 0.00 0.00 48 1010.6
20260508210035 72 194 3.0 10.0 0.00 0.00 0.00 51 1010.8
20260508210017 72 203 4.0 11.0 0.00 0.00 0.00 52 1012.4
20260508204535 72 183 6.0 11.0 0.00 0.00 0.00 48 1010.9
20260508203033 72 214 7.0 11.0 0.00 0.00 0.00 48 1011.1
20260508203016 72 202 5.0 11.0 0.00 0.00 0.00 48 1012.7
20260508201533 72 169 4.0 10.0 0.00 0.00 0.00 49 1011.2
20260508200030 72 212 4.0 9.0 0.00 0.00 0.00 47 1011.5
20260508200017 72 193 4.0 12.0 0.00 0.00 0.00 47 1013.1
20260508194523 72 195 6.0 11.0 0.00 0.00 0.00 47 1011.9
20260508193021 71 203 4.0 9.0 0.00 0.00 0.00 48 1012.1
20260508193016 71 180 5.0 12.0 0.00 0.00 0.00 48 1013.7
20260508191524 71 143 6.0 11.0 0.00 0.00 0.00 50 1012.3
20260508190017 71 191 5.0 13.0 0.00 0.00 0.00 50 1014.3
20260508190015 71 205 6.0 11.0 0.00 0.00 0.00 50 1012.6
20260508184513 71 217 5.0 10.0 0.00 0.00 0.00 48 1012.9
20260508183041 70 176 5.0 14.0 0.00 0.00 0.00 50 1014.7
20260508183009 70 160 6.0 12.0 0.00 0.00 0.00 50 1013.1
20260508181506 69 174 5.0 12.0 0.00 0.00 0.00 49 1013.2
20260508180016 69 167 5.0 14.0 0.00 0.00 0.00 51 1015.1
20260508180004 69 203 4.0 11.0 0.00 0.00 0.00 51 1013.5
20260508174502 69 153 5.0 10.0 0.00 0.00 0.00 49 1013.6